Weather History for PABL - February, 2013

Change the Weather History Date:

Friday, February 15, 2013

  Actual Average (PASK) Record (PASK)
Temperature  
Mean Temperature -8 °F -  
Max Temperature 1 °F 5 °F 35 °F (2006)
Min Temperature -18 °F -3 °F -32 °F (2014)
Degree Days  
Heating Degree Days 72    
Moisture  
Dew Point -13 °F    
Average Humidity 74    
Maximum Humidity 100    
Minimum Humidity 41    
Precipitation  
Precipitation 0.00 in - - ()
Sea Level Pressure  
Sea Level Pressure 29.86 in    
Wind  
Wind Speed 10 mph (SE)    
Max Wind Speed 17 mph    
Max Gust Speed 23 mph    
Visibility 9 miles    
Events      
Averages and records for this station are not official NWS values.
T = Trace of Precipitation, MM = Missing Value Source: NWS Daily Summary

Daily Weather History Graph

Daily Weather History Graph

Search for Another Location

Airport or City:

Trip Planner

Search our weather history database for the weather conditions in past years. The results will help you decide how hot, cold, wet, or windy it might be!

Date:

Astronomy

Feb. 15, 2013 Rise Set
Actual Time 9:47 AM AKST 6:11 PM AKST
Civil Twilight 8:52 AM AKST 7:06 PM AKST
Nautical Twilight 7:52 AM AKST 8:06 PM AKST
Astronomical Twilight 6:53 AM AKST 9:05 PM AKST
Moon 9:47 AM AKST (2/15) 1:59 AM AKST (2/15)
Length of Visible Light 10h 14m
Length of Day
8h 23m
Waxing Crescent, 31% of the Moon is Illuminated
Feb 15
Waxing Crescent
Feb 17
First Quarter
Feb 25
Full
Mar 4
Last Quarter
Mar 11
New

Hourly Weather History & Observations

Time (AKST) Temp. Windchill Dew Point Humidity Pressure Visibility Wind Dir Wind Speed Gust Speed Precip Events Conditions
12:16 AM 1.4 °F -6.2 °F -2.2 °F 85% 29.61 in 3.0 mi SSE 3.5 mph - N/A   Unknown
12:36 AM 1.4 °F -9.9 °F -0.4 °F 92% 29.61 in 3.0 mi South 5.8 mph - N/A   Unknown
12:56 AM 1.4 °F -11.3 °F -2.2 °F 85% 29.62 in 7.0 mi SE 6.9 mph - N/A   Unknown
1:16 AM 1.4 °F -15.3 °F -2.2 °F 85% 29.62 in 9.0 mi SSE 11.5 mph - N/A   Unknown
1:36 AM 1.4 °F -14.5 °F -4.0 °F 78% 29.63 in 7.0 mi SE 10.4 mph - N/A   Unknown
1:56 AM 1.4 °F -15.3 °F -4.0 °F 78% 29.64 in 8.0 mi SSE 11.5 mph - N/A   Unknown
2:16 AM 1.4 °F -15.3 °F -0.4 °F 92% 29.64 in 3.0 mi SSE 11.5 mph - N/A   Unknown
2:36 AM 1.4 °F -15.3 °F -5.8 °F 72% 29.65 in 3.0 mi SSE 11.5 mph - N/A   Unknown
3:16 AM -0.4 °F -19.9 °F -0.4 °F 100% 29.66 in 10.0 mi SE 15.0 mph - N/A   Unknown
3:36 AM -0.4 °F -18.4 °F -5.8 °F 78% 29.66 in 3.0 mi SE 12.7 mph - N/A   Unknown
3:56 AM -0.4 °F -18.4 °F -16.6 °F 46% 29.67 in 8.0 mi SE 12.7 mph - N/A   Unknown
4:16 AM -0.4 °F -17.6 °F -2.2 °F 92% 29.67 in 10.0 mi SE 11.5 mph - N/A   Unknown
4:36 AM -0.4 °F -16.7 °F -7.6 °F 72% 29.68 in 10.0 mi SE 10.4 mph - N/A   Unknown
4:56 AM -0.4 °F -15.7 °F -16.6 °F 46% 29.68 in 10.0 mi SSE 9.2 mph - N/A   Unknown
5:16 AM -0.4 °F -16.7 °F -7.6 °F 72% 29.68 in 10.0 mi SE 10.4 mph - N/A   Unknown
5:36 AM -0.4 °F -12.0 °F -0.4 °F 100% 29.69 in 10.0 mi SE 5.8 mph - N/A   Unknown
5:56 AM -0.4 °F -19.2 °F -9.4 °F 66% 29.70 in 10.0 mi SE 13.8 mph 17.3 mph N/A   Unknown
6:16 AM -2.2 °F -20.7 °F -11.2 °F 66% 29.71 in 10.0 mi ESE 12.7 mph - N/A   Unknown
6:36 AM -2.2 °F -19.9 °F -5.8 °F 85% 29.71 in 10.0 mi ESE 11.5 mph - N/A   Unknown
6:56 AM -4.0 °F -22.1 °F -11.2 °F 71% 29.72 in 10.0 mi SE 11.5 mph - N/A   Unknown
7:16 AM -5.8 °F -26.0 °F -9.4 °F 84% 29.73 in 10.0 mi SE 13.8 mph - N/A   Unknown
7:36 AM -2.2 °F -12.5 °F -5.8 °F 85% 29.74 in 10.0 mi South 4.6 mph - N/A   Unknown
7:56 AM -2.2 °F -22.2 °F -11.2 °F 66% 29.75 in 10.0 mi SE 15.0 mph 23.0 mph N/A   Unknown
8:16 AM -5.8 °F -28.2 °F -14.8 °F 65% 29.76 in 10.0 mi SE 17.3 mph - N/A   Unknown
8:56 AM -7.6 °F -30.5 °F -14.8 °F 71% 29.78 in 10.0 mi SE 17.3 mph - N/A   Unknown
9:16 AM -9.4 °F -31.4 °F -14.8 °F 77% 29.79 in 10.0 mi SE 15.0 mph - N/A   Unknown
9:36 AM -9.4 °F -31.4 °F -16.6 °F 71% 29.80 in 10.0 mi SE 15.0 mph - N/A   Unknown
9:56 AM -9.4 °F -32.1 °F -13.0 °F 84% 29.81 in 10.0 mi SE 16.1 mph - N/A   Unknown
10:16 AM -9.4 °F -32.8 °F -13.0 °F 84% 29.82 in 10.0 mi SE 17.3 mph - N/A   Unknown
10:36 AM -11.2 °F -32.1 °F -16.6 °F 77% 29.84 in 10.0 mi SE 12.7 mph - N/A   Unknown
10:56 AM -11.2 °F -35.2 °F -16.6 °F 77% 29.84 in 10.0 mi SE 17.3 mph 21.9 mph N/A   Unknown
11:16 AM -11.2 °F -33.7 °F -16.6 °F 77% 29.85 in 10.0 mi ESE 15.0 mph - N/A   Unknown
11:36 AM -11.2 °F -34.4 °F -18.4 °F 70% 29.86 in 10.0 mi SE 16.1 mph - N/A   Unknown
11:56 AM -9.4 °F -32.8 °F -14.8 °F 77% 29.87 in 10.0 mi SE 17.3 mph - N/A   Unknown
12:16 PM -9.4 °F -32.1 °F -20.2 °F 59% 29.88 in 10.0 mi SE 16.1 mph - N/A   Unknown
12:36 PM -11.2 °F -33.7 °F -14.8 °F 84% 29.89 in 10.0 mi SE 15.0 mph - N/A   Unknown
12:56 PM -9.4 °F -30.6 °F -18.4 °F 65% 29.90 in 10.0 mi SE 13.8 mph - N/A   Unknown
1:16 PM -7.6 °F -27.5 °F -11.2 °F 84% 29.91 in 10.0 mi ESE 12.7 mph - N/A   Unknown
1:36 PM -7.6 °F -27.5 °F -16.6 °F 65% 29.91 in 10.0 mi ESE 12.7 mph - N/A   Unknown
1:56 PM -9.4 °F -28.9 °F -16.6 °F 71% 29.92 in 10.0 mi ESE 11.5 mph - N/A   Unknown
2:16 PM -7.6 °F -27.5 °F -7.6 °F 100% 29.92 in 6.0 mi ESE 12.7 mph - N/A   Unknown
2:36 PM -7.6 °F -29.1 °F -20.2 °F 54% 29.93 in 9.0 mi ESE 15.0 mph - N/A   Unknown
2:56 PM -7.6 °F -28.3 °F -7.6 °F 100% 29.93 in 10.0 mi SE 13.8 mph - N/A   Unknown
3:16 PM -7.6 °F -27.5 °F -20.2 °F 54% 29.94 in 10.0 mi ESE 12.7 mph - N/A   Unknown
3:36 PM -7.6 °F -27.5 °F -9.4 °F 92% 29.95 in 8.0 mi ESE 12.7 mph - N/A   Unknown
3:56 PM -7.6 °F -27.5 °F -20.2 °F 54% 29.95 in 9.0 mi ESE 12.7 mph - N/A   Unknown
4:16 PM -7.6 °F -27.5 °F -9.4 °F 92% 29.96 in 8.0 mi ESE 12.7 mph - N/A   Unknown
4:36 PM -7.6 °F -28.3 °F -20.2 °F 54% 29.96 in 10.0 mi ESE 13.8 mph - N/A   Unknown
4:56 PM -7.6 °F -29.1 °F -9.4 °F 92% 29.97 in 10.0 mi ESE 15.0 mph - N/A   Unknown
5:16 PM -9.4 °F -27.9 °F -22.0 °F 54% 29.97 in 10.0 mi East 10.4 mph - N/A   Unknown
5:36 PM -9.4 °F -25.6 °F -9.4 °F 100% 29.98 in 9.0 mi SSE 8.1 mph - N/A   Unknown
5:56 PM -9.4 °F -26.8 °F -27.4 °F 41% 29.99 in 7.0 mi SSE 9.2 mph - N/A   Unknown
6:16 PM -9.4 °F -29.8 °F - N/A% 29.98 in 10.0 mi South 12.7 mph - N/A   Unknown
6:36 PM -9.4 °F -25.6 °F - N/A% 29.99 in 9.0 mi SSE 8.1 mph - N/A   Unknown
6:56 PM -9.4 °F -26.8 °F -22.0 °F 54% 30.00 in 10.0 mi South 9.2 mph - N/A   Unknown
7:16 PM -9.4 °F -27.9 °F -14.8 °F 77% 30.00 in 10.0 mi SSE 10.4 mph - N/A   Unknown
7:36 PM -7.6 °F -26.6 °F -11.2 °F 84% 30.00 in 10.0 mi East 11.5 mph 16.1 mph N/A   Unknown
7:56 PM -9.4 °F -25.6 °F -25.6 °F 45% 30.01 in 10.0 mi South 8.1 mph - N/A   Unknown
8:16 PM -9.4 °F -24.3 °F -9.4 °F 100% 30.02 in 10.0 mi SW 6.9 mph - N/A   Unknown
8:36 PM -11.2 °F -24.8 °F -29.2 °F 41% 30.03 in 10.0 mi South 5.8 mph - N/A   Unknown
8:56 PM -11.2 °F - -11.2 °F 100% 30.04 in 10.0 mi Calm Calm - N/A   Unknown
9:16 PM -13.0 °F -22.7 °F -27.4 °F 49% 30.04 in 10.0 mi West 3.5 mph - N/A   Unknown
9:36 PM -11.2 °F - - N/A% 30.05 in 10.0 mi Calm Calm - N/A   Unknown
9:56 PM -14.8 °F - -29.2 °F 48% 30.05 in 4.0 mi Calm Calm - N/A   Unknown
10:16 PM -13.0 °F - - N/A% 30.06 in 4.0 mi Calm Calm - N/A   Unknown
10:36 PM -14.8 °F -27.2 °F -29.2 °F 48% 30.06 in 10.0 mi South 4.6 mph - N/A   Unknown
10:56 PM -14.8 °F - - N/A% 30.07 in 9.0 mi Calm Calm - N/A   Unknown
11:16 PM -16.6 °F - - N/A% 30.08 in 10.0 mi Calm Calm - N/A   Unknown
11:36 PM -16.6 °F -26.8 °F -22.0 °F 76% 30.08 in 10.0 mi West 3.5 mph - N/A   Unknown
11:56 PM -18.4 °F - - N/A% 30.09 in 10.0 mi Calm Calm - N/A   Unknown